Location: Carri�res
(48.9069°N, 2.1792°E)
Time: 13:52:19
(UTC+00:00)

Cosmos 968 Rocket - Pass Details

Date: 17 January 2021
Orbit: 740 x 771 km, 74.0° (Epoch: 26 February)

Event Time Altitude Azimuth Distance (km) Brightness Sun altitude
Rises 17:37:18 0° 212° (SSW) 3,169 7.5 -11.5°
Reaches altitude 10° 17:39:40 10° 215° (SW) 2,248 6.8 -11.9°
Maximum altitude 17:44:42 62° 296° (WNW) 836 3.9 -12.7°
Drops below altitude 10° 17:49:47 10° 18° (NNE) 2,264 5.6 -13.5°
Enters shadow 17:51:11 - 20° (NNE) 2,805 6.1 -13.7°
